Regional Weather Roundup
Issued by NWS

Home | Current Version | Previous Version | Text Only | Print | Product List | Glossary On
Versions: 1 2 3 4 5 6 7 8 9 10 11 12 13 14 15 16 17 18 19 20 21 22 23 24 25 26 27 28 29 30 31 32 33 34 35 36 37 38 39 40 41 42 43 44 45 46 47 48 49 50
000
ASUS46 KLOX 062013
RWRCA

SOUTHERN CALIFORNIA WEATHER ROUNDUP
NATIONAL WEATHER SERVICE OXNARD CALIFORNIA
100 PM PDT MON JUL 06 2015

NOTE: "FAIR" INDICATES FEW OR NO CLOUDS BELOW 12,000 FEET WITH NO
SIGNIFICANT WEATHER AND/OR OBSTRUCTIONS TO VISIBILITY.

  -  STATIONS PRECEEDED BY AN ASTERISK (*) ARE NOT NWS OR FAA
     STATIONS AND ARE NOT SUBJECT TO NWS AND FAA QUALITY CONTROL.

CAZ041-042-087-062100-
LA AND ORANGE COUNTY COASTAL AREAS


CITY           SKY/WX    TMP DP  RH WIND       PRES   REMARKS
L.A. DOWNTOWN  MOSUNNY   73  61  65 CALM      30.02F
L.A. AIRPORT   CLOUDY    68  60  75 SW12      30.04F
LONG BEACH     CLOUDY    72  60  66 VRB6      30.03F

CITY           SKY/WX    TMP DP  RH WIND       PRES   REMARKS
AVALON           N/A     68 N/A N/A MISG        N/A
FULLERTON      PTSUNNY   74  60  61 SW6       30.02F
*GETTY CENTER    N/A     70  59  68 SW9         N/A
HAWTHORNE      CLOUDY    69  60  73 CALM      30.04F
*LOS ALAMITOS  CLOUDY    72  62  69 VRB5      30.03F
*REDONDO BEACH   N/A     70  61  73 CALM      30.04F
SANTA ANA      PTSUNNY   71  60  68 CALM      30.03F
STA MONICA APT PTSUNNY   68  60  75 S8        30.04F
*UCLA            N/A     70  59  68 SW6       30.01F

$$

CAZ547-548-048-062100-
LA COUNTY VALLEYS AND INLAND EMPIRE


CITY           SKY/WX    TMP DP  RH WIND       PRES   REMARKS
BURBANK        SUNNY     75  59  57 VRB5      30.02F
VAN NUYS       SUNNY     78  59  51 E7        30.02F

CITY           SKY/WX    TMP DP  RH WIND       PRES   REMARKS
CORONA AIRPORT CLOUDY    78  61  55 W8        30.01F
*CHATSWORTH      N/A     79  60  52 SE3       30.00F
CHINO          MOSUNNY   80  60  50 NW8       30.02F
MARCH AFB      MOSUNNY   80  58  47 NW9       30.02F
*NORTHRIDGE      N/A     77  55  47 SE2         N/A
ONTARIO        MOSUNNY   77  59  53 SW12      30.01F
*PASADENA        N/A     77  63  61 E9          N/A
POMONA         SUNNY     77  59  53 MISG      30.05F
RIVERSIDE      SUNNY     79  60  52 VRB6      30.01F
SAN BERNARDINO MOSUNNY   79  55  44 SW7       30.02F HAZE
*WHITEMAN AP   SUNNY     75  59  57 MISG      30.06F

$$

CAZ054-055-062100-
LA AND SAN BERNARDINO COUNTY MOUNTAINS


CITY           SKY/WX    TMP DP  RH WIND       PRES   REMARKS
*BIG BEAR AIRP RAIN      63  48  59 N5        30.35R
SANDBERG       SUNNY     87  43  21 S15G21    30.18S

$$

CAZ028-029-059-060-099-062100-
ANTELOPE VALLEY AND SURROUNDING AREAS


CITY           SKY/WX    TMP DP  RH WIND       PRES   REMARKS
LANCASTER      SUNNY     97  46  17 W12       30.00F HX  93
PALMDALE       SUNNY     95  42  16 S12       30.01F HX  91

CITY           SKY/WX    TMP DP  RH WIND       PRES   REMARKS
29 PALMS       SUNNY     98  46  17 E6        30.03F HX  94
BARSTOW/DAGGET SUNNY     99  51  19 NE12G17   29.95F HX  96
BISHOP         SUNNY     94  39  14 S16G24    30.06F HX  90
CHINA LAKE     MOSUNNY  100  43  14 S8        29.96F HX  96
EDWARDS AFB    MOSUNNY   94  44  17 VRB1      29.98F HX  90
MOJAVE         FAIR      95  43  16 SW9       30.03F HX  91
NEEDLES        SUNNY    102  56  21 CALM      29.90F HX 101
VICTORVILLE    SUNNY     93  43  17 CALM      30.02F

$$

CAZ039-040-062100-
VENTURA AND SANTA BARBARA COUNTY COAST


CITY           SKY/WX    TMP DP  RH WIND       PRES   REMARKS
CAMARILLO      CLOUDY    70  58  65 SW10      30.04F
OXNARD AIRPORT CLOUDY    68  58  70 W8        30.05F
*POINT MUGU    PTSUNNY   72  58  61 SW9       30.06S
SBA APT/GOLETA CLOUDY    66  59  78 VRB7      30.05F
*SANTA BARBARA   N/A     71  58  64 CALM      30.13S
*VENTURA         N/A     70  59  69 SW3       29.65S

$$

CAZ044-045-062100-
VENTURA COUNTY VALLEYS


CITY           SKY/WX    TMP DP  RH WIND       PRES   REMARKS
*SIMI VALLEY     N/A     77  63  61 SW5       29.97F
*OJAI            N/A     78  62  57 W1        29.95F
*FILLMORE        N/A     77  64  63 SW5       29.93F

$$

CAZ053-062100-
VENTURA COUNTY MOUNTAINS


CITY           SKY/WX    TMP DP  RH WIND       PRES   REMARKS

$$

CAZ034-035-036-062100-
CENTRAL COAST AND SANTA YNEZ VALLEY


CITY           SKY/WX    TMP DP  RH WIND       PRES   REMARKS
SAN LUIS OBISP SUNNY     74  57  55 NW16      30.04F
SANTA MARIA    MOSUNNY   71  58  63 VRB6G17   30.06F

CITY           SKY/WX    TMP DP  RH WIND       PRES   REMARKS
*CAL POLY SLO    N/A     72  61  68 NW7         N/A
*LOMPOC        CLOUDY    68  55  64 NW9       30.08F
*PISMO BEACH     N/A     67  60  78 W10       30.06S
*SANTA YNEZ    FAIR      75  54  46 W8        30.03F

$$

CAZ037-038-051-062100-
SAN LUIS OBISPO COUNTY INTERIOR AND CUYAMA VALLEY


CITY           SKY/WX    TMP DP  RH WIND       PRES   REMARKS
*CUYAMA          N/A     84  54  35 NE6       29.91S
PASO ROBLES    SUNNY     85  50  29 NW12      30.01F

$$

CAZ032-033-061-062100-
SOUTHERN DESERTS


CITY           SKY/WX    TMP DP  RH WIND       PRES   REMARKS
BLYTHE         SUNNY    103  53  19 S10       29.88F HX 101
IMPERIAL       SUNNY    100  58  24 MISG      29.84F HX  99
PALM SPRINGS   MOSUNNY  101  51  18 SE6       29.91F HX  98
THERMAL        SUNNY    102  50  17 E10       29.84F HX  99

$$

ELSEWHERE ACROSS THE WESTERN UNITED STATES AND MEXICO


CITY           SKY/WX    TMP DP  RH WIND       PRES   REMARKS
DENVER, CO     CLOUDY    62  57  83 NE14      30.29F
GRAND CANYON,  CLOUDY    73  50  44 W9G17     30.31F
HONOLULU, HI   MOSUNNY   88  66  48 NE12      29.99R HX  90
KAHULUI, MAUI  MOSUNNY   85  68  56 NE24      29.99
LAKE TAHOE, CA PTSUNNY   78  48  34 VRB7      30.26F
LAS VEGAS, NV  MOSUNNY   96  55  25 VRB5      29.95F HX  94
MAMMOTH LAKES, FAIR      81  36  19 SE9G16    30.30F
MEXICO CITY, M MOSUNNY   73  52  46 E3        30.36F
PHOENIX, AZ    MOSUNNY  100  60  26 SW9       29.92F HX 100
PORTLAND, OR   MOSUNNY   82  55  39 N7        29.98F
RENO, NV       MOSUNNY   88  46  23 NE5       30.12F
SALT LAKE CITY PTSUNNY   85  58  39 NW9       30.07F
SAN DIEGO, CA  CLOUDY    70  60  70 NW7       30.05F
SAN FRANCISCO, MOSUNNY   70  54  56 NW13      30.08S
SAN JOSE, CA   MOSUNNY   75  57  53 W10       30.06F
SEATTLE, WA    PTSUNNY   79  54  41 SW13G21   30.01F
TIJUANA, MEX     N/A    N/A N/A N/A MISG        N/A

$$

STATION/POSITION TIME  TEMP    WIND        PRES    VSBY  WAVE
                       AIR SEA DIR/SP/G                  HT/PER
                 (UTC) (F)     (DEG/KT/KT) (MB)    (MI)  (FT/S)
POINT ARGUELLO B NOT AVBL
WEST SANTA BARBA 1950   60 60  310/ 14/ 16 1017.3F         3/15
POINT CONCEPTION NOT AVBL
EAST SANTA BARBA 2000   62 63  280/  4/  6 1018.3F
SANTA MONICA BAY 1950   63 68  250/  6/  8 1017.8F         2/14



USA.gov is the U.S. government's official web portal to all federal, state and local government web resources and services.